Regional Weather Roundup
Issued by NWS Cleveland, OH

Home | Current Version | Previous Version | Graphics & Text | Print | Product List | Glossary On
Versions: 1 2 3 4 5 6 7 8 9 10 11 12 13 14 15 16 17 18 19 20 21 22 23 24 25 26 27 28 29 30 31 32 33 34 35 36 37 38 39 40 41 42 43 44 45 46 47 48 49 50
000
ASUS41 KCLE 222210
RWRCLE
OHIO REGIONAL WEATHER ROUNDUP
NATIONAL WEATHER SERVICE WILMINGTON, OH
600 PM EDT TUE MAY 22 2018

NOTE: "FAIR" INDICATES FEW OR NO CLOUDS BELOW 12,000 FEET WITH NO
SIGNIFICANT WEATHER AND/OR OBSTRUCTIONS TO VISIBILITY.

OHZ001>008-015>018-024>027-034-035-043-044-222300-
   NORTHWEST OHIO

CITY           SKY/WX    TMP DP  RH WIND       PRES   REMARKS
DEFIANCE       FAIR      74  62  66 NW16G25   29.98R
FINDLAY        FAIR      80  61  52 NW14G23   29.94S
TOLEDO EXPRESS FAIR      78  62  57 NW15      29.94R
TOLEDO EXEC    FAIR      79  61  53 NW17      29.94S
LIMA           FAIR      77  63  61 NW20      29.96R
$$

OHZ009>014-019>023-028>033-038-089-222300-
   NORTHEAST OHIO

CITY           SKY/WX    TMP DP  RH WIND       PRES   REMARKS
CLE-HOPKINS    PTSUNNY   74  67  78 SW6       29.95S
CLE-LAKEFRONT  CLOUDY    65  61  87 NE3       29.93R FOG
CUY CO. ARPT   PTSUNNY   68  64  88 NW7       29.95R FOG
LORAIN-ELYRIA  RAIN      70  64  81 VRB6      29.94F
ASHTABULA      CLOUDY    66  65  96 NW7       29.95S FOG
AKRON-CANTON   LGT RAIN  68  62  81 N5        29.96R
WOOSTER        FAIR      68  64  87 W10       29.96S
MANSFIELD      FAIR      71  64  78 SW8       29.96F
YOUNGSTOWN     CLOUDY    70  65  84 SW3       29.94S
$$

OHZ042-051>053-060>062-070>072-077>081-222300-
  SOUTHWEST OHIO

CITY           SKY/WX    TMP DP  RH WIND       PRES   REMARKS
CINC-COVINGTON FAIR      81  68  64 S12       29.96F
CINC-LUNKEN    PTSUNNY   82  72  71 S10       29.95F
HAMILTON       FAIR      83  69  62 NW12      29.96S
DAYTON         PTSUNNY   81  68  64 W15       29.96S
WRIGHT-PAT AFB MOSUNNY   80  65  58 W10       29.95S
DAYTON GENERAL FAIR      83  63  50 W9        29.95F
WILMINGTON     PTSUNNY   78  69  73 SW7       29.95F
$$

OHZ036-037-039>041-045>050-054>059-063>069-073>076-082>088-222300-
  CENTRAL AND SOUTHEAST OHIO

CITY           SKY/WX    TMP DP  RH WIND       PRES   REMARKS
COLUMBUS       PTSUNNY   81  65  58 SW14G22   29.92F THUNDER
OSU AIRPORT    PTSUNNY   80  66  62 W10       29.93F
BOLTON FIELD   PTSUNNY   79  70  73 W7        29.95F THUNDER
RICKENBACK AFB CLOUDY    76  70  82 MISG      29.93F
NEWARK         LGT RAIN  78  68  71 SW7       29.93F
MARION         LGT RAIN  71  66  84 NW6       29.96F
LANCASTER      FAIR      81  69  67 SW9       29.95F
ZANESVILLE     FAIR      80  68  66 VRB5      29.94F
NEW PHILLY     FAIR      79  66  64 SW8       29.93F THUNDER
$$



USA.gov is the U.S. government's official web portal to all federal, state and local government web resources and services.